Regional Weather Roundup
Issued by NWS

Home | Current Version | Previous Version | Graphics & Text | Print | Product List | Glossary On
Versions: 1 2 3 4 5 6 7 8 9 10 11 12 13 14 15 16 17 18 19 20 21 22 23 24 25 26 27 28 29 30 31 32 33 34 35 36 37 38 39 40 41 42 43 44 45 46 47 48 49 50
000
ASUS43 KMKX 251621
RWRWI

WISCONSIN REGIONAL WEATHER ROUNDUP
NATIONAL WEATHER SERVICE MILWAUKEE/SULLIVAN WI
1100 AM CDT MON JUL 25 2016

NOTE: "FAIR" INDICATES FEW OR NO CLOUDS BELOW 12,000 FEET WITH NO
SIGNIFICANT WEATHER AND/OR OBSTRUCTIONS TO VISIBILITY.

WIZ001-002-006>008-014>016-023>028-251700-
NORTHWEST WISCONSIN

CITY           SKY/WX    TMP DP  RH WIND       PRES   REMARKS
SUPERIOR ARPT  MOSUNNY   77  62  60 W6        30.02S
ASHLAND        SUNNY     77  59  53 W12       30.02R
HAYWARD        PTSUNNY   74  60  61 W5        30.05R
SIREN          SUNNY     77  63  61 W9        30.06S
CUMBERLAND     SUNNY     73  59  60 NW9       30.07S
RICE LAKE      SUNNY     75  62  63 W8        30.08R
CHETEK         SUNNY     76  63  63 NW7       30.06S
LADYSMITH      MOSUNNY   76  62  61 NW7       30.07S
EAU CLAIRE     SUNNY     78  64  61 NW6       30.05S HX  80
MENOMONIE      SUNNY     79  62  55 W8        30.06S HX  80
NEW RICHMOND   MOSUNNY   78  62  57 W6        30.07S
OSCEOLA        SUNNY     77  63  61 NW8       30.09F
$$

WIZ003>005-009-010-017-018-251700-
NORTH CENTRAL WISCONSIN

CITY           SKY/WX    TMP DP  RH WIND       PRES   REMARKS
MANITOWISH WTR SUNNY     73  58  58 W10       30.03R
ARBOR VITAE    SUNNY     75  58  56 N12       30.03S
WOODRUFF       SUNNY     75  58  56 N12       30.03S
RHINELANDER    SUNNY     75  57  53 NW10      30.03S
EAGLE RIVER    SUNNY     73  54  51 NW14      30.02R
LAND O LAKES   SUNNY     73  56  53 NW9G18    30.03R
PHILLIPS       MOSUNNY   73  60  65 NW9       30.04S
TOMAHAWK       SUNNY     74  58  56 NW7       30.04R
MEDFORD        SUNNY     74  61  65 NW10      30.05R
MERRILL        SUNNY     76  61  61 W12       30.03S
$$

WIZ029-030-035-036-043>047-251700-
CENTRAL WISCONSIN

CITY           SKY/WX    TMP DP  RH WIND       PRES   REMARKS
WAUSAU         MOSUNNY   76  62  62 NW10      30.01S
MOSINEE        MOSUNNY   75  64  69 NW10      30.04S
MARSHFIELD     SUNNY     77  64  64 NW8       30.04S
STEVENS POINT  MOSUNNY   76  62  60 W10G16    30.03S
WAUPACA        SUNNY     82  63  52 NW8       30.01S HX  83
WAUTOMA        MOSUNNY   79  65  62 W9        30.02S HX  81
WISC RAPIDS    SUNNY     79  61  53 NW9       30.04S HX  80
CAMP DOUGLAS   MOSUNNY   79  68  69 NW13      30.03F HX  81
$$

WIZ011>013-019>022-031-037>040-048>050-251700-
NORTHEAST WISCONSIN

CITY           SKY/WX    TMP DP  RH WIND       PRES   REMARKS
ANTIGO         SUNNY     75  59  58 NW12G17   30.02S
SHAWANO        SUNNY     80  63  56 W10       29.99R HX  81
OCONTO         SUNNY     79  63  57 W14G20    29.95S HX  80
STURGEON BAY   SUNNY     77  63  61 W15       29.96
GREEN BAY      SUNNY     79  68  69 W8        29.98R HX  81
MANITOWOC      SUNNY     80  62  54 NW14      29.98S HX  81
APPLETON       MOSUNNY   77  61  57 W12G17    29.99S
CLINTONVILLE   SUNNY     79  61  53 NW13      29.99S HX  80
OSHKOSH        SUNNY     80  63  55 NW12      30.00R HX  81
$$

WIZ032>034-041-042-053>061-251700-
SOUTHWEST WISCONSIN

CITY           SKY/WX    TMP DP  RH WIND       PRES   REMARKS
LA CROSSE      SUNNY     81  64  56 NW6       30.04F HX  82
SPARTA         MOSUNNY   79  64  60 NW9       30.05S HX  80
VIROQUA        SUNNY     77  63  62 NW12      30.07R
BOSCOBEL       MOSUNNY   81  65  58 W6        30.05R HX  83
PRAIRIE DU CHI SUNNY     80  61  52 W12       30.05R HX  81
PLATTEVILLE    SUNNY     79  67  68 NW10      30.06R HX  81
$$

WIZ056-057-062-063-064-067-068-251700-
SOUTH CENTRAL WISCONSIN

CITY           SKY/WX    TMP DP  RH WIND       PRES   REMARKS
REEDSBURG      SUNNY     78  65  64 NW10      30.03S HX  80
BARABOO/DELLS  MOSUNNY   78  63  60 W9        30.03S HX  80
LONE ROCK      SUNNY     79  65  62 W12       30.04R HX  81
MINERAL POINT  SUNNY     79  63  57 NW9       30.06R HX  80
MADISON        MOSUNNY   81  64  56 N10       30.02R HX  82
MIDDLETON      MOSUNNY   81  65  58 NW7       30.04R HX  82
WATERTOWN      SUNNY     79  65  61 W12       30.01S HX  81
MONROE         SUNNY     79  63  57 W6        30.05R HX  80
JANESVILLE     PTSUNNY   82  64  54 NW8       30.02R HX  84
$$

WIZ051-052-058>065-066-070>072-251700-
SOUTHEAST WISCONSIN

CITY           SKY/WX    TMP DP  RH WIND       PRES   REMARKS
MILWAUKEE      MOSUNNY   83  63  50 NW9       30.00R HX  84
WAUKESHA       SUNNY     79  63  57 NW12G17   30.02S HX  80
MILWAUKEE/TIMM SUNNY     81  57  44 NW14      30.01R HX  81
RACINE         SUNNY     83  64  52 VRB6      30.01S HX  84
BURLINGTON     SUNNY     81  65  59 NW8       30.01S HX  82
KENOSHA        SUNNY     81  66  60 W10       30.01R HX  83
FOND DU LAC    SUNNY     80  65  59 W10       30.00S HX  82
SHEBOYGAN      SUNNY     80  65  59 NW8       29.99R HX  82
WEST BEND      MOSUNNY   81  63  54 NW10      30.00S HX  82
JUNEAU         SUNNY     77  64  63 NW8       30.03R
$$

LSZ147-162-251700-
LAKE SUPERIOR

STATION/POSITION TIME  TEMP    WIND        PRES    WAVE
                       AIR SEA DIR/SP/G            HT/PER
                 (UTC) (F)     (DEG/KT/KT) (MB)    (FT/S)
W MID LAKE BUOY  1550   62 59  250/ 14/ 17 1014.0R   1/ 4
DEVILS ISLAND    1600   65     240/ 18/ 20 1015.4R
SAXON HARBOR     1500   71     320/  6/  8 1015.6
$$

LMZ867-665-643>646-251700-
LAKE MICHIGAN

STATION/POSITION TIME  TEMP    WIND        PRES    WAVE
                       AIR SEA DIR/SP/G            HT/PER
                 (UTC) (F)     (DEG/KT/KT) (MB)    (FT/S)
CHAMBERS ISLAND  1500   77     250/  3/  8 1013.5
N MID LAKE BUOY  1550   70 69  260/ 10/ 12 1012.4R   2/ 5
NORTHPORT PIER   1500   76     300/  5/ 11 1013.2R
SISTER BAY       1521   77     300/ 12/ 14   N/A
ALGOMA LAKESHORE 1513          310/ 13/ 18   N/A
KEWAUNEE LAKESHO 1500   77     310/  6/ 12 1014.0R
SHEBOYGAN LAKESH 1600   78     300/ 13/ 15 1015.0R
PORT WASHINGTON  1540   82     340/  8/ 13 1015.9R
MILWAUKEE LAKESH 1510   78     300/  6/  9   N/A
S MID LAKE BUOY  1550   72 72  320/ 10/ 12 1015.0R   2/ 4
KENOSHA   LAKESH 1600   80     330/ 12/ 17 1015.2S
$$

TC  - TEMPERATURE IN CELSIUS
VSB - VISIBILITY IN STATUTE MILES
WCI - WIND CHILL INDEX
HX  - HEAT INDEX




USA.gov is the U.S. government's official web portal to all federal, state and local government web resources and services.